TNS 0-2
1 42914U 98067ND 19255.28336236 .00141836 19372-4 31192-3 0 9993
2 42914 51.6288 199.9533 0004615 127.0265 233.1167 15.97793800118631
QIKCOM-1
1 42983U 98067NF 19255.59599048 .00002560 00000-0 38285-4 0 9990
2 42983 51.6386 268.8219 0004707 86.2342 273.9189 15.59300925106742
AO-91
1 43017U 17073E 19255.74626296 .00000213 00000-0 22671-4 0 9995
2 43017 97.7200 173.7381 0256665 238.0517 119.5508 14.78624532 97971
EcAMSat
1 43019U 98067NG 19255.48904554 .00004662 00000-0 58255-4 0 9995
2 43019 51.6391 262.9080 0005261 70.2136 289.9424 15.62023485189130
PICSAT
1 43132U 18004X 19254.75199020 .00000953 00000-0 42668-4 0 9997
2 43132 97.4821 322.3804 0008590 324.2914 35.7748 15.23718132 92452
AO-92
1 43137U 18004AC 19254.75041056 .00000732 00000-0 33602-4 0 9990
2 43137 97.4811 322.3371 0008237 326.9226 33.1495 15.23577172 92445
TianYi 2
1 43155U 18008A 19255.82802788 .00000430 00000-0 29306-4 0 9991
2 43155 97.4809 326.5353 0018692 32.3190 77.5258 15.11226729 90838
Zhou Enlai
1 43156U 18008B 19255.77778604 .00000254 00000-0 19087-4 0 9994
2 43156 97.4852 326.3694 0015714 31.6573 116.2114 15.10734938 90794
TianYi 6
1 43158U 18008D 19255.77394804 .00000111 00000-0 10627-4 0 9995
2 43158 97.4805 325.7578 0014811 28.3315 86.1867 15.10316808 90750
S-Net G
1 43186U 18014G 19255.73735437 -.00000022 00000-0 31758-5 0 9991
2 43186 97.7018 162.9131 0012360 78.9676 281.2935 14.96671252 88003
S-Net H
1 43187U 18014H 19254.80118320 -.00000119 00000-0 -53166-5 0 9990
2 43187 97.7017 161.9774 0012351 81.4997 278.7624 14.96671385 87866
S-Net J
1 43188U 18014J 19255.73698924 -.00000032 00000-0 22302-5 0 9998
2 43188 97.7018 162.9185 0012354 78.9807 281.2803 14.96671067 88001
S-Net K
1 43189U 18014K 19255.73733160 -.00000023 00000-0 30710-5 0 9993
2 43189 97.7016 162.8961 0012347 78.8978 281.3631 14.96670777 86556
FMN 1
1 43192U 18015A 19255.87260553 .00001651 00000-0 69885-4 0 9995
2 43192 97.4093 22.5903 0016096 356.5656 122.6369 15.24494353 89446
Shaonian Xing
1 43199U 18015H 19255.78763443 .00001199 00000-0 50834-4 0 9999
2 43199 97.3879 21.4496 0017312 7.2334 96.6982 15.24950411 89481
1KUNS-PF
1 43466U 98067NP 19255.47450650 .00018293 00000-0 16012-3 0 9992
2 43466 51.6346 258.1914 0002070 67.2784 292.8431 15.68959807 76373
UBAKUSAT
1 43467U 98067NQ 19255.44200695 .00009863 00000-0 10628-3 0 9992
2 43467 51.6353 264.7388 0003131 45.0364 315.0884 15.64403679 76295
Irazu
1 43468U 98067NR 19255.46945527 .00012958 00000-0 96850-4 0 9996
2 43468 51.6329 252.8538 0002363 68.4257 291.6993 15.73102187176437
EnduroSat One
1 43551U 98067NZ 19255.06403421 .00012948 00000-0 13499-3 0 9993
2 43551 51.6356 268.9651 0006071 99.0165 261.1517 15.64904807 66433
EQUISat
1 43552U 98067PA 19255.50383690 .00009906 00000-0 11135-3 0 9993
2 43552 51.6369 268.9361 0006424 101.0077 259.1640 15.63298356 66432
UiTMSat 1
1 43589U 98067PD 19255.04897587 .00011825 00000-0 13024-3 0 9999
2 43589 51.6344 271.8241 0005689 104.6354 255.5272 15.63602044 62096
Maya 1
1 43590U 98067PE 19255.29872447 .00011052 00000-0 12200-3 0 9993
2 43590 51.6347 270.4973 0005791 107.0542 253.1088 15.63625067 62064
Bhutan 1
1 43591U 98067PF 19254.45539576 .00010095 00000-0 11179-3 0 9994
2 43591 51.6355 274.6453 0005888 104.1623 256.0027 15.63662342 61935
SiriusSat 1
1 43595U 98067PG 19255.06367059 .00011423 00000-0 13028-3 0 9992
2 43595 51.6346 273.4290 0004308 67.6116 292.5334 15.62745258 61181
SiriusSat 2
1 43596U 98067PH 19255.61450139 .00009553 00000-0 11058-3 0 9998
2 43596 51.6356 271.1513 0004790 70.7484 289.4028 15.62592239 61267
Tanusha-3
1 43597U 98067PJ 19255.57992421 .00014290 00000-0 14992-3 0 9993
2 43597 51.6338 268.5930 0004342 80.2894 279.8591 15.64648096 61291
SurfSat
1 43614U 18070B 19254.85143699 .00002045 00000-0 55115-4 0 9992
2 43614 093.0290 038.8110 0014957 347.4305 012.6573 15.37820078055494
CP-7 DAVE
1 43615U 18070C 19254.86193774 .00001984 00000-0 53632-4 0 9996
2 43615 93.0294 38.8148 0015136 346.5447 13.5401 15.37727326 55499
ELFIN-B
1 43616U 18070D 19254.83251432 .00002948 00000-0 77660-4 0 9998
2 43616 93.0256 38.7106 0015968 349.7214 10.3710 15.38473947 55509
ELFIN-A
1 43617U 18070E 19254.88876260 .00003025 00000-0 79573-4 0 9998
2 43617 93.0310 39.0152 0015018 346.6680 13.4174 15.38533131 55516
STARS-Me Mother
1 43640U 98067PQ 19255.51276590 .00005799 00000-0 77707-4 0 9996
2 43640 51.6359 276.4643 0006041 59.5557 300.6032 15.59600308 53118
CubeBel 1
1 43666U 18083E 19255.80057255 .00000877 00000-0 46826-4 0 9991
2 43666 97.5167 279.6793 0013579 248.2401 227.8409 15.17706690 48344
Changshagaoxin
1 43669U 18083H 19255.74091784 .00000504 00000-0 29015-4 0 9990
2 43669 97.5031 278.6655 0009510 237.5387 122.4927 15.16879012 48272
Ten-Koh
1 43677U 18084G 19254.83245645 -.00000002 00000-0 56294-5 0 9990
2 43677 97.8593 8.0456 0016114 6.6054 353.5373 14.90190334 47292
PO-101
1 43678U 18084H 19255.81016706 -.00000005 00000-0 51542-5 0 9998
2 43678 97.8582 9.7242 0010641 25.5215 334.6544 14.91568273 47483
IRVINE 01
1 43693U 18088D 19255.04864596 .00001699 00000-0 73252-4 0 9992
2 43693 85.0323 261.7343 0016250 234.9224 125.0495 15.21635603 46349
QO-100
1 43700U 18090A 19254.86160598 .00000125 00000-0 00000 0 0 9993
2 43700 0.0244 170.2730 0001816 15.4482 140.8407 1.00271713 3140
Reaktor Hello World
1 43743U 18096AA 19255.77175894 .00001000 00000-0 40690-4 0 9999
2 43743 97.4539 325.6544 0019240 36.2491 111.9095 15.26754610 43864
MinXSS-2
1 43758U 18099A 19254.79858940 .00000282 00000-0 30654-4 0 9999
2 43758 97.7392 325.8225 0016575 47.6290 312.6331 14.95453077 42151
AO-95
1 43770U 18099N 19255.78859515 -.00000046 00000-0 10237-5 0 9997
2 43770 97.7394 326.5325 0015683 50.9448 309.3165 14.94805630 42284
RANGE-B
1 43772U 18099Q 19255.16873688 .00000148 00000-0 18789-4 0 9999
2 43772 97.7452 326.1454 0015148 41.3473 318.8891 14.94927332 42182
RANGE-A
1 43773U 18099R 19255.77952429 -.00000235 00000-0 -16301-4 0 9995
2 43773 97.7341 326.3604 0014472 39.3572 320.8697 14.94832029 42270
MOVE-II
1 43780U 18099Y 19255.73835849 .00000598 00000-0 59693-4 0 9996
2 43780 97.7385 326.5484 0014569 50.1521 310.0979 14.95117716 42269
SNUSat 2
1 43782U 18099AA 19255.73398941 .00000304 00000-0 32921-4 0 9995
2 43782 97.7388 326.5886 0013603 40.1225 320.0998 14.95085658 42270
SnugLite
1 43784U 18099AC 19255.78624597 -.00000104 00000-0 -42204-5 0 9997
2 43784 97.7355 326.5478 0016103 46.2258 314.0292 14.95171464 42297
ITASat 1
1 43786U 18099AE 19255.78414743 -.00000209 00000-0 -13751-4 0 9999
2 43786 97.7408 326.7449 0016198 45.2095 315.0440 14.95171215 42290
EAGLET 1
1 43790U 18099AJ 19255.77953096 -.00000252 00000-0 -17485-4 0 9998
2 43790 97.7399 326.8713 0014565 50.0427 310.2071 14.95544313 41994
ESEO
1 43792U 18099AL 19254.84103964 -.00000324 00000-0 -23959-4 0 9991
2 43792 97.7379 325.8809 0014486 50.2096 310.0398 14.95526258 41915
CSIM
1 43793U 18099AM 19254.88282440 .00000827 00000-0 79229-4 0 9990
2 43793 97.7348 325.8182 0014075 49.6395 310.6053 14.95758763 41893
Astrocast 0.1
1 43798U 18099AS 19255.73632132 .00000249 00000-0 27545-4 0 9999
2 43798 97.7383 326.8789 0013078 32.6674 327.5353 14.95752373 42280
JO-97
1 43803U 18099AX 19255.76119836 .00000336 00000-0 35659-4 0 9992
2 43803 97.7369 326.6180 0016305 46.3690 313.8879 14.95312505 42280
